Location: Invercargill
(46.4000°S, 168.3500°E)
Time: 09:13:43
(UTC+12:00)

Vanguard 2 Rocket - Visible Passes

Search period start: 20 July 2019 00:00
Search period end: 30 July 2019 00:00
Orbit: 554 x 3326 km, 32.9° (Epoch: 18 July)

Date Brightness Start Highest point End Pass type
(mag) Time Alt. Az. Time Alt. Az. Time Alt. Az.
20 Jul 9.9 02:50:29 40° NE 02:50:29 40° NE 03:03:41 10° E visible
20 Jul 9.6 04:56:16 43° NW 05:01:47 52° N 05:20:54 10° ENE visible
20 Jul 10.2 07:02:04 11° W 07:18:12 39° NNW 07:34:52 10° NNE visible
21 Jul 10.4 01:54:09 24° ENE 01:54:09 24° ENE 02:01:13 10° E visible
21 Jul 9.5 03:59:56 52° N 04:00:18 52° N 04:19:22 10° ENE visible
21 Jul 10.0 06:05:43 24° WNW 06:16:48 44° NNW 06:34:49 10° NE visible
22 Jul 10.9 00:57:49 11° E 00:57:49 11° E 00:58:24 10° E visible
22 Jul 9.8 03:03:37 43° NE 03:03:37 43° NE 03:17:22 10° ENE visible
22 Jul 9.6 05:09:24 39° NW 05:15:18 48° NNW 05:34:06 10° NE visible
22 Jul 10.4 07:16:06 10° W 07:31:19 31° NNW 07:46:56 10° NNE visible
23 Jul 10.3 02:07:19 27° ENE 02:07:19 27° ENE 02:15:02 10° E visible
23 Jul 9.5 04:13:06 50° NNW 04:13:54 50° N 04:32:44 10° ENE visible
23 Jul 10.1 06:18:54 20° WNW 06:30:08 37° NNW 06:47:20 10° NNE visible
24 Jul 10.8 01:11:01 13° E 01:11:01 13° E 01:12:27 10° E visible
24 Jul 9.7 03:16:49 44° NE 03:16:49 44° NE 03:30:53 10° ENE visible
24 Jul 9.7 05:22:37 34° NW 05:28:49 42° NNW 05:46:55 10° NE visible
24 Jul 10.5 07:31:12 10° W 07:44:22 24° NW 07:58:05 10° N visible
25 Jul 10.2 02:20:33 28° ENE 02:20:33 28° ENE 02:28:41 10° ENE visible
25 Jul 9.5 04:26:21 45° NNW 04:27:31 46° NNW 04:45:50 10° NE visible
25 Jul 10.2 06:32:09 16° WNW 06:43:23 30° NNW 06:59:09 10° NNE visible
26 Jul 10.7 01:24:19 14° ENE 01:24:19 14° ENE 01:26:15 10° E visible
26 Jul 9.7 03:30:07 43° NNE 03:30:07 43° NNE 03:44:11 10° ENE visible
26 Jul 9.8 05:35:55 29° WNW 05:42:16 36° NNW 05:59:14 10° NNE visible
27 Jul 10.1 02:33:55 29° NE 02:33:55 29° NE 02:42:09 10° ENE visible
27 Jul 9.6 04:39:43 39° NNW 04:41:07 40° NNW 04:58:31 10° NE visible
27 Jul 10.3 06:45:32 11° WNW 06:56:36 22° NW 07:09:58 10° N visible
28 Jul 10.7 01:37:45 14° ENE 01:37:45 14° ENE 01:39:54 10° ENE visible
28 Jul 9.7 03:43:33 39° NNE 03:43:33 39° NNE 03:57:11 10° NE visible
28 Jul 10.0 05:49:22 23° WNW 05:55:41 28° NNW 06:10:49 10° NNE visible
29 Jul 10.1 02:47:25 28° NE 02:47:25 28° NE 02:55:24 10° ENE visible
29 Jul 9.7 04:53:13 32° NNW 04:54:42 33° NNW 05:10:38 10° NNE visible
29 Jul 10.5 07:01:39 10° WNW 07:09:50 15° NW 07:18:46 10° NNW visible
